OK1VCF-8 Weather Reports


time (UTC)temp
F
wind
direction
speed
knots
gust
knots
rain 1hr
in
rain 24hr
in
rain mn
in
humidity
%
barometer
mb
20260507192844 53 0 0.0 0.0 0.00 0.00 0.00 86 1016.0
20260507192126 54 0 0.0 0.0 0.00 0.00 0.00 86 1015.9
20260507191407 54 0 0.0 0.0 0.00 0.00 0.00 84 1015.8
20260507190649 54 0 0.0 0.0 0.00 0.00 0.00 84 1015.6
20260507185928 54 0 0.0 0.0 0.00 0.00 0.00 82 1015.5
20260507185208 54 0 0.0 0.0 0.00 0.00 0.00 82 1015.2
20260507184448 54 0 0.0 0.0 0.00 0.00 0.00 80 1015.2
20260507183728 55 0 0.0 0.0 0.00 0.00 0.00 79 1015.2
20260507181543 55 0 0.0 0.0 0.00 0.00 0.00 76 1014.9
20260507180540 55 0 0.0 0.0 0.00 0.00 0.00 76 1014.8
20260507175820 56 0 0.0 0.0 0.00 0.00 0.00 74 1014.8
20260507175103 56 0 0.0 0.0 0.00 0.00 0.00 74 1014.8
20260507174345 56 0 0.0 0.0 0.00 0.00 0.00 72 1014.6
20260507173626 56 0 0.0 0.0 0.00 0.00 0.00 70 1014.4
20260507172906 57 0 0.0 0.0 0.00 0.00 0.00 70 1014.4
20260507172147 58 0 0.0 0.0 0.00 0.00 0.00 70 1014.4
20260507171426 58 0 0.0 0.0 0.00 0.00 0.00 69 1014.4
20260507170709 59 0 0.0 0.0 0.00 0.00 0.00 66 1014.2
20260507165949 59 0 0.0 0.0 0.00 0.00 0.00 64 1014.2
20260507165229 60 0 0.0 0.0 0.00 0.00 0.00 66 1014.2
20260507164511 60 0 0.0 0.0 0.00 0.00 0.00 64 1014.2
20260507163750 60 0 0.0 0.0 0.00 0.00 0.00 62 1014.1
20260507163030 60 0 0.0 0.0 0.00 0.00 0.00 60 1014.0
20260507162310 60 0 0.0 0.0 0.00 0.00 0.00 60 1014.0
20260507161304 60 0 0.0 0.0 0.00 0.00 0.00 60 1013.8
20260507160545 61 0 0.0 0.0 0.00 0.00 0.00 59 1013.8
20260507155824 62 0 0.0 0.0 0.00 0.00 0.00 56 1013.9
20260507155105 62 0 0.0 0.0 0.00 0.00 0.00 56 1014.4
20260507154344 62 0 0.0 0.0 0.00 0.00 0.00 57 1013.8
20260507153623 62 0 0.0 0.0 0.00 0.00 0.00 55 1013.6
20260507152903 64 0 0.0 0.0 0.00 0.00 0.00 54 1013.6
20260507152144 68 0 0.0 0.0 0.00 0.00 0.00 47 1013.4
20260507151422 68 0 0.0 0.0 0.00 0.00 0.00 49 1013.4
20260507150704 64 0 0.0 0.0 0.00 0.00 0.00 55 1013.4
20260507145943 65 0 0.0 0.0 0.00 0.00 0.00 54 1013.2
20260507145221 67 0 0.0 0.0 0.00 0.00 0.00 50 1013.0
20260507144501 67 0 0.0 0.0 0.00 0.00 0.00 50 1013.1
20260507143742 70 0 0.0 0.0 0.00 0.00 0.00 48 1013.0
20260507143022 66 0 0.0 0.0 0.00 0.00 0.00 51 1013.0
20260507142018 68 0 0.0 0.0 0.00 0.00 0.00 49 1013.0
20260507141257 68 0 0.0 0.0 0.00 0.00 0.00 46 1013.1
20260507140539 70 0 0.0 0.0 0.00 0.00 0.00 47 1013.0
20260507135818 67 0 0.0 0.0 0.00 0.00 0.00 49 1013.0
20260507135059 68 0 0.0 0.0 0.00 0.00 0.00 48 1013.4
20260507134339 67 0 0.0 0.0 0.00 0.00 0.00 50 1013.2
20260507133617 65 0 0.0 0.0 0.00 0.00 0.00 51 1013.2
20260507132857 66 0 0.0 0.0 0.00 0.00 0.00 50 1013.2
20260507132131 66 0 0.0 0.0 0.00 0.00 0.00 49 1013.1
20260507131410 68 0 0.0 0.0 0.00 0.00 0.00 48 1013.2
20260507130647 68 0 0.0 0.0 0.00 0.00 0.00 49 1013.2
20260507125907 66 0 0.0 0.0 0.00 0.00 0.00 51 1013.2
20260507125101 64 0 0.0 0.0 0.00 0.00 0.00 52 1013.6
20260507124249 66 0 0.0 0.0 0.00 0.00 0.00 50 1013.0
20260507121745 66 0 0.0 0.0 0.00 0.00 0.00 51 1013.1
20260507120919 65 0 0.0 0.0 0.00 0.00 0.00 51 1013.0
20260507120100 66 0 0.0 0.0 0.00 0.00 0.00 52 1013.0
20260507115243 64 0 0.0 0.0 0.00 0.00 0.00 55 1013.0
20260507114438 64 0 0.0 0.0 0.00 0.00 0.00 56 1013.0
20260507113649 64 0 0.0 0.0 0.00 0.00 0.00 54 1013.0
20260507112912 64 0 0.0 0.0 0.00 0.00 0.00 53 1013.0
20260507112142 66 0 0.0 0.0 0.00 0.00 0.00 50 1012.8
20260507111421 67 0 0.0 0.0 0.00 0.00 0.00 50 1012.8
20260507110701 66 0 0.0 0.0 0.00 0.00 0.00 50 1012.9
20260507105939 66 0 0.0 0.0 0.00 0.00 0.00 52 1012.8
20260507105218 66 0 0.0 0.0 0.00 0.00 0.00 52 1012.8
20260507104458 66 0 0.0 0.0 0.00 0.00 0.00 50 1012.8
20260507103740 68 0 0.0 0.0 0.00 0.00 0.00 51 1012.6